Flag for Germany Weather past 2 weeks in Konstanz, Baden-Württemberg, Germany

Now
67 °F

Low clouds.


Feels Like: 67 °F
Forecast: 59 / 77 °F
Wind: 1 mph from Northwest

Location: Konstanz

Current Time: Jul 22, 2014 at 10:34:23 PM

Latest Report: Jul 22, 2014 at 7:00 PM


Visibility: 8 mi

Pressure: 29.93 "Hg

Humidity: 90%

Dew point: 64 °F

Location of KonstanzLocation

Historic Weather in Konstanz — Graph

°F

Konstanz temperature yesterday

Maximum temperature yesterday: 68 °F (at 3:00 PM)
Minimum temperature yesterday: 60 °F (at 6:00 AM)
Average temperature yesterday: 63 °F

Past Weeks' High & Low Weather Summary

 TemperatureHumidityPressure
High91 °F (Jul 19, 6:00 PM)97% (Jul 11, 7:00 AM)30.19 "Hg (Jul 11, 7:00 AM)
Low51 °F (Jul 10, 6:00 AM)14% (Jul 18, 5:00 PM)29.78 "Hg (Jul 20, 4:00 AM)
Average66 °F75%29.95 "Hg
* Reported Jul 7 7:00 PM — Jul 22 7:00 PM, Konstanz, Weather by CustomWeather, © 2014

Note: Actual official high and low records may vary slightly from our data, if they occured in-between our weather recording intervals... More about our weather records

Advertising

Konstanz weather history for previous 24 hours

 ConditionsComfort  
Time TempWeatherWind HumidityBarometerVisibility
7:00 PM
Jul 22
67 °FLow clouds.1 mph90%29.93 "Hg7 mi
6:00 PM66 °FLight rain. Low clouds.2 mph94%29.93 "Hg4 mi
5:00 PM67 °FLight rain. Low clouds.2 mph90%29.92 "Hg5 mi
4:00 PM68 °FLight rain. Low clouds.1 mph92%29.90 "Hg4 mi
3:00 PM68 °FLight rain. Low clouds.1 mph90%29.90 "Hg5 mi
2:00 PM66 °FRain. Low clouds.2 mph96%29.90 "Hg3 mi
1:00 PM65 °FRain. Low clouds.2 mph95%29.89 "Hg6 mi
12:00 PM65 °FRain. Low clouds.2 mph91%29.89 "Hg7 mi
11:00 AM64 °FRain. Low clouds.3 mph93%29.88 "Hg5 mi
10:00 AM65 °FLight rain. Low clouds.3 mph90%29.87 "Hg14 mi
9:00 AM64 °FLight rain. Low clouds.5 mph93%29.86 "Hg14 mi
8:00 AM63 °FLight rain. Low clouds.3 mph95%29.85 "Hg7 mi
7:00 AM62 °FLight rain. Overcast.5 mph95%29.85 "Hg7 mi
6:00 AM62 °FRain. Low clouds.6 mph97%29.85 "Hg4 mi
5:00 AM62 °FRain. Overcast.3 mph97%29.86 "Hg2 mi
4:00 AM61 °FRain. Passing clouds.2 mph96%29.88 "Hg4 mi
3:00 AM62 °FLight rain. Low clouds.3 mph96%29.88 "Hg8 mi
2:00 AM62 °FRain. Low clouds.3 mph96%29.90 "Hg2 mi
1:00 AM62 °FLow clouds.3 mph95%29.91 "Hg19 mi
12:00 AM62 °FDrizzle. Overcast.3 mph95%29.91 "Hg28 mi
11:00 PM
Jul 21
62 °FLight rain. Overcast.3 mph94%29.92 "Hg19 mi
10:00 PM62 °FLight rain. Low clouds.3 mph95%29.93 "Hg7 mi
Weather by CustomWeather, © 2014

See weather overviewHow to use our weather pages